• In Czech Republic
  • List of Countries
  • For 7 days
  • Water Temperature
  • Satellite Maps
  • Weather Map
  • Weather Widgets
  • user-avatar
    Login

    Hourly Weather Kipungo

    Today, 28 June, Wednesday

    Time Temperature Precipitation Wind Pressure Humidity
    00:00 +14°C° 0 mm 2 mps 654 mmHg 42%
    01:00 +14°C° 0 mm 2 mps 654 mmHg 44%
    02:00 +13°C° 0 mm 2 mps 653 mmHg 46%
    03:00 +12°C° 0 mm 1 mps 653 mmHg 49%
    04:00 +11°C° 0 mm 1 mps 653 mmHg 51%
    05:00 +11°C° 0 mm 1 mps 653 mmHg 52%
    06:00 +11°C° 0 mm 1 mps 653 mmHg 53%
    07:00 +11°C° 0 mm 1 mps 653 mmHg 54%
    08:00 +16°C° 0 mm 1 mps 655 mmHg 43%
    09:00 +20°C° 0 mm 2 mps 656 mmHg 32%
    10:00 +25°C° 0 mm 2 mps 657 mmHg 21%
    11:00 +27°C° 0 mm 2 mps 657 mmHg 19%
    12:00 +29°C° 0 mm 2 mps 657 mmHg 17%
    13:00 +31°C° 0 mm 2 mps 657 mmHg 15%
    14:00 +31°C° 0 mm 1 mps 656 mmHg 15%
    15:00 +31°C° 0 mm 1 mps 656 mmHg 15%
    16:00 +28°C° 0 mm 0 mps 655 mmHg 14%
    17:00 +26°C° 0 mm 1 mps 654 mmHg 22%
    18:00 +22°C° 0 mm 1 mps 653 mmHg 29%
    19:00 +16°C° 0 mm 1 mps 652 mmHg 36%
    20:00 +16°C° 0 mm 1 mps 652 mmHg 35%
    21:00 +16°C° 0 mm 1 mps 653 mmHg 34%
    22:00 +16°C° 0 mm 2 mps 653 mmHg 33%
    23:00 +15°C° 0 mm 1 mps 653 mmHg 36%

    Tomorrow, 29 June, Thursday

    Time Temperature Precipitation Wind Pressure Humidity
    00:00 +14°C° 0 mm 1 mps 653 mmHg 38%
    01:00 +13°C° 0 mm 1 mps 653 mmHg 40%
    02:00 +12°C° 0 mm 1 mps 652 mmHg 44%
    03:00 +11°C° 0 mm 1 mps 652 mmHg 49%
    04:00 +9°C° 0 mm 0 mps 652 mmHg 53%
    05:00 +10°C° 0 mm 0 mps 652 mmHg 51%
    06:00 +10°C° 0 mm 0 mps 653 mmHg 50%
    07:00 +12°C° 0 mm 1 mps 653 mmHg 49%
    08:00 +16°C° 0 mm 1 mps 654 mmHg 40%
    09:00 +21°C° 0 mm 2 mps 656 mmHg 31%
    10:00 +26°C° 0 mm 3 mps 657 mmHg 21%
    11:00 +28°C° 0 mm 3 mps 657 mmHg 20%
    12:00 +29°C° 0 mm 3 mps 657 mmHg 18%
    13:00 +31°C° 0 mm 3 mps 656 mmHg 16%
    14:00 +31°C° 0 mm 2 mps 656 mmHg 16%
    15:00 +31°C° 0 mm 2 mps 655 mmHg 15%
    16:00 +31°C° 0 mm 1 mps 655 mmHg 15%
    17:00 +26°C° 0 mm 1 mps 654 mmHg 26%
    18:00 +22°C° 0 mm 1 mps 653 mmHg 37%
    19:00 +16°C° 0 mm 1 mps 652 mmHg 48%
    20:00 +16°C° 0 mm 1 mps 653 mmHg 45%
    21:00 +16°C° 0 mm 1 mps 654 mmHg 41%
    22:00 +15°C° 0 mm 1 mps 654 mmHg 38%
    23:00 +15°C° 0 mm 1 mps 654 mmHg 41%

    Day after tomorrow, 30 June, Friday

    Time Temperature Precipitation Wind Pressure Humidity
    00:00 +14°C° 0 mm 1 mps 654 mmHg 43%
    01:00 +13°C° 0 mm 1 mps 653 mmHg 46%
    02:00 +12°C° 0 mm 1 mps 653 mmHg 49%
    03:00 +11°C° 0 mm 1 mps 653 mmHg 51%
    04:00 +11°C° 0 mm 1 mps 652 mmHg 54%
    05:00 +11°C° 0 mm 1 mps 653 mmHg 52%
    06:00 +12°C° 0 mm 1 mps 653 mmHg 49%
    07:00 +12°C° 0 mm 1 mps 654 mmHg 47%
    08:00 +16°C° 0 mm 2 mps 655 mmHg 38%
    09:00 +20°C° 0 mm 2 mps 656 mmHg 29%
    10:00 +26°C° 0 mm 3 mps 658 mmHg 20%
    11:00 +27°C° 0 mm 3 mps 657 mmHg 18%
    12:00 +29°C° 0 mm 2 mps 657 mmHg 16%
    13:00 +31°C° 0 mm 2 mps 657 mmHg 14%
    14:00 +31°C° 0 mm 2 mps 656 mmHg 13%
    15:00 +31°C° 0 mm 1 mps 656 mmHg 13%
    16:00 +30°C° 0 mm 1 mps 655 mmHg 13%
    17:00 +26°C° 0 mm 1 mps 654 mmHg 20%
    18:00 +21°C° 0 mm 1 mps 654 mmHg 28%
    19:00 +16°C° 0 mm 1 mps 653 mmHg 36%
    20:00 +16°C° 0 mm 1 mps 653 mmHg 35%
    21:00 +15°C° 0 mm 1 mps 654 mmHg 35%
    22:00 +15°C° 0 mm 1 mps 654 mmHg 34%
    23:00 +14°C° 0 mm 1 mps 654 mmHg 37%

    1 July, Saturday

    Time Temperature Precipitation Wind Pressure Humidity
    00:00 +13°C° 0 mm 1 mps 653 mmHg 40%
    01:00 +13°C° 0 mm 1 mps 653 mmHg 43%
    02:00 +12°C° 0 mm 1 mps 653 mmHg 46%
    03:00 +11°C° 0 mm 1 mps 652 mmHg 50%
    04:00 +11°C° 0 mm 1 mps 652 mmHg 53%
    05:00 +11°C° 0 mm 1 mps 653 mmHg 51%
    06:00 +11°C° 0 mm 1 mps 653 mmHg 49%
    07:00 +12°C° 0 mm 1 mps 654 mmHg 46%
    08:00 +16°C° 0 mm 2 mps 655 mmHg 37%
    09:00 +21°C° 0 mm 2 mps 656 mmHg 28%
    10:00 +26°C° 0 mm 3 mps 658 mmHg 20%
    11:00 +28°C° 0 mm 3 mps 657 mmHg 17%
    12:00 +29°C° 0 mm 3 mps 657 mmHg 15%
    13:00 +31°C° 0 mm 2 mps 656 mmHg 13%
    14:00 +31°C° 0 mm 2 mps 656 mmHg 12%
    15:00 +30°C° 0 mm 2 mps 655 mmHg 12%
    16:00 +30°C° 0 mm 2 mps 655 mmHg 11%
    17:00 +26°C° 0 mm 1 mps 654 mmHg 21%
    18:00 +22°C° 0 mm 1 mps 653 mmHg 30%
    19:00 +16°C° 0 mm 1 mps 653 mmHg 39%
    20:00 +16°C° 0 mm 1 mps 653 mmHg 37%
    21:00 +15°C° 0 mm 1 mps 653 mmHg 35%
    22:00 +15°C° 0 mm 1 mps 654 mmHg 33%
    23:00 +14°C° 0 mm 1 mps 653 mmHg 37%

    2 July, Sunday

    Time Temperature Precipitation Wind Pressure Humidity
    00:00 +13°C° 0 mm 1 mps 653 mmHg 41%
    01:00 +12°C° 0 mm 1 mps 653 mmHg 45%
    02:00 +11°C° 0 mm 1 mps 652 mmHg 47%
    03:00 +11°C° 0 mm 1 mps 652 mmHg 50%
    04:00 +11°C° 0 mm 1 mps 652 mmHg 53%
    05:00 +11°C° 0 mm 1 mps 653 mmHg 53%
    06:00 +11°C° 0 mm 1 mps 653 mmHg 52%
    07:00 +12°C° 0 mm 1 mps 654 mmHg 52%
    08:00 +16°C° 0 mm 2 mps 655 mmHg 44%
    09:00 +20°C° 0 mm 3 mps 656 mmHg 35%
    10:00 +25°C° 0 mm 4 mps 657 mmHg 26%
    11:00 +27°C° 0 mm 3 mps 657 mmHg 22%
    12:00 +29°C° 0 mm 3 mps 656 mmHg 18%
    13:00 +30°C° 0 mm 3 mps 656 mmHg 15%
    14:00 +30°C° 0 mm 2 mps 655 mmHg 14%
    15:00 +30°C° 0 mm 2 mps 655 mmHg 13%
    16:00 +30°C° 0 mm 2 mps 655 mmHg 13%
    17:00 +26°C° 0 mm 2 mps 654 mmHg 20%
    18:00 +22°C° 0 mm 1 mps 653 mmHg 28%
    19:00 +18°C° 0 mm 1 mps 653 mmHg 35%
    20:00 +16°C° 0 mm 1 mps 653 mmHg 36%
    21:00 +15°C° 0 mm 2 mps 653 mmHg 37%
    22:00 +15°C° 0 mm 2 mps 654 mmHg 37%
    23:00 +14°C° 0 mm 1 mps 653 mmHg 41%

    3 July, Monday

    Time Temperature Precipitation Wind Pressure Humidity
    00:00 +13°C° 0 mm 1 mps 653 mmHg 45%
    01:00 +12°C° 0 mm 1 mps 652 mmHg 49%
    02:00 +12°C° 0 mm 1 mps 652 mmHg 51%
    03:00 +11°C° 0 mm 1 mps 652 mmHg 52%
    04:00 +11°C° 0 mm 1 mps 652 mmHg 54%
    05:00 +11°C° 0 mm 1 mps 652 mmHg 53%
    06:00 +12°C° 0 mm 1 mps 653 mmHg 52%
    07:00 +12°C° 0 mm 1 mps 653 mmHg 51%
    08:00 +16°C° 0 mm 2 mps 655 mmHg 41%
    09:00 +20°C° 0 mm 2 mps 656 mmHg 32%
    10:00 +26°C° 0 mm 3 mps 657 mmHg 23%
    11:00 +27°C° 0 mm 3 mps 657 mmHg 20%
    12:00 +29°C° 0 mm 2 mps 656 mmHg 17%
    13:00 +30°C° 0 mm 2 mps 656 mmHg 15%
    14:00 +30°C° 0 mm 2 mps 655 mmHg 14%
    15:00 +30°C° 0 mm 2 mps 655 mmHg 14%
    16:00 +30°C° 0 mm 2 mps 655 mmHg 13%
    17:00 +26°C° 0 mm 2 mps 654 mmHg 18%
    18:00 +21°C° 0 mm 2 mps 653 mmHg 23%
    19:00 +17°C° 0 mm 2 mps 653 mmHg 28%
    20:00 +16°C° 0 mm 2 mps 653 mmHg 30%
    21:00 +16°C° 0 mm 2 mps 653 mmHg 32%
    22:00 +15°C° 0 mm 2 mps 654 mmHg 35%
    23:00 +14°C° 0 mm 1 mps 653 mmHg 38%
    Show more